Weather in Ushakovskoye

Russia / Kurgan Oblast     56°16′51″N   62°27′00″E
temp.,
°C
wind,
m/s
gust,
m/s
humid.,
%
clouds,
%
prec.,
mm/h
press.,
hPa
HPBL,
m
18 april, sun
sun1823:00+7wnw22535 0.0 102016
02:00+4wnw38715 0.0 1018149
05:00+3w49775 0.0 1017183
08:00+6wnw613672 0.0 1016649
11:00+5n9107996 0.1 1018920
14:00+5nne9114099 0.0 10221771
17:00+4nne8932100 0.0 10252260
20:00+1ne710374 0.0 1028908
19 april, mon
mon1923:00−1ne59420 0.0 1031827
02:00−3ene47440 0.0 1033966
05:00−4ne25480 0.0 1034556
08:00−3ne46405 0.0 10361250
11:000nne57335 0.0 10361682
14:00+2ne563030 0.0 10352020
17:00+2nne563092 0.0 10352125
20:000ne22415 0.0 103518
20 april, tue
tue2023:00−1ene11435 0.0 103510
02:00−2n00460 0.0 103610
05:00−2w22495 0.0 103631
08:00+1wnw344313 0.0 1036327
11:00+5w45325 0.0 10351360
14:00+7wnw56315 0.0 10331691
17:00+9wnw67280 0.0 10311837
20:00+6wnw34455 0.0 103158
21 april, wed
wed2123:00+4wnw49600 0.0 1031172
02:00+2nw49680 0.0 1031171
05:00+1nw36740 0.0 1033107
08:00+4nnw35610 0.0 1033249
11:00+9nnw34440 0.0 1033954
14:00+11nnw33375 0.0 10331464
17:00+12nnw23355 0.0 10331668
20:00+10ene11463 0.0 103410
22 april, thu
thu2223:00+7sse22550 0.0 103513
02:00+6s22600 0.0 103510
05:00+5s11640 0.0 103610
08:00+8s22540 0.0 1037168
11:00+12s33400 0.0 1037993
14:00+15s33321 0.0 10361692
17:00+16s44300 0.0 10351793
20:00+12sse33430 0.0 103633